Погода в Новинках

Россия / Нижегородская область     56°12′17″N   43°52′47″E
темп.,
°C
ветер,
м/с
пор.,
м/с
влажн.,
%
обл.,
%
осадки,
мм/ч
давл.,
гПа
погр.,
м
18 мая, вт
вт1800:00+19юв279070 0.2 1015145
03:00+17вюв248584 0.2 101568
06:00+19вюв277296 0.0 1015160
09:00+23вюв4755100 0.0 1015367
12:00+27юв574463 0.0 1015891
15:00+28юв58435 0.0 10141674
18:00+26вюв49575 0.0 1014899
21:00+22вюв513750 0.0 1014423
19 мая, ср
ср1900:00+20вюв513805 0.0 1014380
03:00+18вюв412825 0.0 1014321
06:00+19вюв513755 0.0 1014386
09:00+23вюв610575 0.0 1014598
12:00+26юв710480 0.0 10131049
15:00+27вюв710510 0.0 10131336
18:00+24вюв611610 0.0 1013844
21:00+20вюв514660 0.0 1013516
20 мая, чт
чт2000:00+19вюв515680 0.0 1012466
03:00+17вюв514722 0.0 1012419
06:00+18вюв513735 0.0 1011442
09:00+22юв710610 0.0 1011888
12:00+24юв7105557 0.0 10111590
15:00+23юв711622 0.8 10101509
18:00+21ююв5117414 2.4 1009897
21:00+17ююв2389100 4.1 100987
21 мая, пт
пт2100:00+15ю128850 1.1 100942
03:00+14ю2492100 1.1 100990
06:00+15ююз3888100 0.0 1009342
09:00+18ююз57713 1.0 1009904
12:00+19юз69596 0.6 10101432
15:00+18зюз796797 1.3 10111249
18:00+16зюз6107222 0.6 10131193
21:00+13зюз497545 0.6 1016677
22 мая, сб
сб2200:00+11зюз3880100 0.0 1017443
03:00+11юз2380100 0.0 1018147
06:00+13ююв1176100 0.0 1019144
09:00+11ссз1192100 2.4 1020162
12:00+11ссв4596100 10.0 1019359
15:00+11св3696100 13.6 1019401
18:00+11св2697100 0.8 1018282
21:00+10св269894 0.8 1019232